When you browse on this site, cookies collect data to enhance your experience and personalize the content and advertising you see.
Visit our Privacy Policy to learn more. By continuing to use the site, you agree to this use of cookies and data.
  • In Latvia
  • List of Countries
  • For 7 days
  • Water Temperature
  • Weather Map
  • Weather Widgets
  • user-avatar
    Login

    Hourly Weather Emmen

    Today, 4 June, Thursday

    Time Temperature Precipitation Wind Pressure Humidity
    00:00 +15°C° 0.1 mm 1 mps 713 mmHg 90%
    01:00 +15°C° 0 mm 1 mps 713 mmHg 92%
    02:00 +15°C° 0.1 mm 1 mps 712 mmHg 93%
    03:00 +15°C° 0.1 mm 1 mps 711 mmHg 93%
    04:00 +15°C° 0.1 mm 1 mps 711 mmHg 93%
    05:00 +15°C° 0.1 mm 1 mps 711 mmHg 93%
    06:00 +15°C° 0.1 mm 1 mps 711 mmHg 93%
    07:00 +15°C° 0.1 mm 1 mps 710 mmHg 93%
    08:00 +16°C° 0.3 mm 1 mps 710 mmHg 93%
    09:00 +16°C° 0.3 mm 1 mps 710 mmHg 92%
    10:00 +16°C° 0.3 mm 1 mps 710 mmHg 91%
    11:00 +16°C° 2.9 mm 1 mps 710 mmHg 93%
    12:00 +15°C° 2.9 mm 2 mps 710 mmHg 94%
    13:00 +15°C° 2.9 mm 2 mps 709 mmHg 95%
    14:00 +15°C° 1.2 mm 2 mps 709 mmHg 94%
    15:00 +15°C° 1.2 mm 2 mps 709 mmHg 92%
    16:00 +15°C° 1.2 mm 2 mps 709 mmHg 90%
    17:00 +15°C° 1.1 mm 2 mps 709 mmHg 92%
    18:00 +14°C° 1.1 mm 2 mps 709 mmHg 93%
    19:00 +14°C° 1.1 mm 2 mps 709 mmHg 95%
    20:00 +13°C° 0.5 mm 2 mps 709 mmHg 95%
    21:00 +13°C° 0.5 mm 2 mps 710 mmHg 94%
    22:00 +13°C° 0.5 mm 1 mps 710 mmHg 93%
    23:00 +12°C° 0.3 mm 1 mps 710 mmHg 93%

    Tomorrow, 5 June, Friday

    Time Temperature Precipitation Wind Pressure Humidity
    00:00 +12°C° 0.3 mm 1 mps 710 mmHg 93%
    01:00 +12°C° 0.3 mm 1 mps 711 mmHg 93%
    02:00 +12°C° 0.6 mm 1 mps 711 mmHg 95%
    03:00 +12°C° 0.6 mm 1 mps 711 mmHg 96%
    04:00 +12°C° 0.6 mm 1 mps 711 mmHg 97%
    05:00 +12°C° 0.5 mm 1 mps 711 mmHg 96%
    06:00 +12°C° 0.5 mm 1 mps 711 mmHg 95%
    07:00 +12°C° 0.5 mm 1 mps 711 mmHg 94%
    08:00 +13°C° 0.5 mm 2 mps 712 mmHg 92%
    09:00 +14°C° 0.5 mm 2 mps 712 mmHg 90%
    10:00 +13°C° 0.5 mm 3 mps 712 mmHg 88%
    11:00 +14°C° 0.3 mm 3 mps 712 mmHg 80%
    12:00 +17°C° 0.3 mm 4 mps 712 mmHg 71%
    13:00 +18°C° 0.3 mm 4 mps 712 mmHg 63%
    14:00 +17°C° 0.1 mm 5 mps 713 mmHg 62%
    15:00 +17°C° 0.1 mm 5 mps 713 mmHg 61%
    16:00 +17°C° 0.1 mm 6 mps 713 mmHg 60%
    17:00 +16°C° 0.1 mm 5 mps 713 mmHg 65%
    18:00 +15°C° 0.1 mm 4 mps 713 mmHg 71%
    19:00 +14°C° 0.1 mm 3 mps 713 mmHg 76%
    20:00 +14°C° 0.1 mm 3 mps 714 mmHg 78%
    21:00 +14°C° 0.1 mm 3 mps 714 mmHg 80%
    22:00 +13°C° 0.1 mm 3 mps 715 mmHg 82%
    23:00 +13°C° 0.1 mm 3 mps 715 mmHg 83%

    Day after tomorrow, 6 June, Saturday

    Time Temperature Precipitation Wind Pressure Humidity
    00:00 +14°C° 0.1 mm 2 mps 714 mmHg 84%
    01:00 +13°C° 0.1 mm 2 mps 714 mmHg 85%
    02:00 +13°C° 0 mm 2 mps 714 mmHg 85%
    03:00 +12°C° 0 mm 2 mps 714 mmHg 85%
    04:00 +12°C° 0 mm 2 mps 714 mmHg 85%
    05:00 +13°C° 0 mm 2 mps 714 mmHg 81%
    06:00 +14°C° 0 mm 2 mps 715 mmHg 78%
    07:00 +16°C° 0 mm 3 mps 715 mmHg 74%
    08:00 +17°C° 0 mm 3 mps 715 mmHg 69%
    09:00 +19°C° 0 mm 3 mps 716 mmHg 64%
    10:00 +20°C° 0 mm 4 mps 716 mmHg 59%
    11:00 +21°C° 0.4 mm 4 mps 716 mmHg 60%
    12:00 +21°C° 0.4 mm 4 mps 716 mmHg 60%
    13:00 +21°C° 0.4 mm 5 mps 715 mmHg 61%
    14:00 +21°C° 0.6 mm 4 mps 715 mmHg 63%
    15:00 +21°C° 0.6 mm 4 mps 715 mmHg 65%
    16:00 +20°C° 0.6 mm 4 mps 715 mmHg 67%
    17:00 +19°C° 0.3 mm 3 mps 715 mmHg 73%
    18:00 +18°C° 0.3 mm 3 mps 715 mmHg 78%
    19:00 +17°C° 0.3 mm 2 mps 715 mmHg 84%
    20:00 +16°C° 0.9 mm 2 mps 716 mmHg 88%
    21:00 +15°C° 0.9 mm 1 mps 716 mmHg 93%
    22:00 +14°C° 0.9 mm 1 mps 717 mmHg 98%
    23:00 +14°C° 1 mm 1 mps 716 mmHg 98%

    7 June, Sunday

    Time Temperature Precipitation Wind Pressure Humidity
    00:00 +14°C° 1 mm 1 mps 716 mmHg 98%
    01:00 +14°C° 1 mm 1 mps 716 mmHg 98%
    02:00 +13°C° 0.9 mm 1 mps 717 mmHg 98%
    03:00 +13°C° 0.9 mm 1 mps 717 mmHg 98%
    04:00 +12°C° 0.9 mm 1 mps 717 mmHg 98%
    05:00 +12°C° 1.4 mm 1 mps 717 mmHg 97%
    06:00 +11°C° 1.4 mm 1 mps 717 mmHg 97%
    07:00 +11°C° 1.4 mm 1 mps 717 mmHg 97%
    08:00 +11°C° 0.4 mm 1 mps 717 mmHg 96%
    09:00 +11°C° 0.4 mm 1 mps 718 mmHg 95%
    10:00 +12°C° 0.4 mm 1 mps 718 mmHg 93%
    11:00 +12°C° 0.1 mm 1 mps 718 mmHg 91%
    12:00 +12°C° 0.1 mm 1 mps 718 mmHg 89%
    13:00 +12°C° 0.1 mm 1 mps 717 mmHg 87%
    14:00 +13°C° 0.1 mm 1 mps 718 mmHg 85%
    15:00 +13°C° 0.1 mm 1 mps 718 mmHg 82%
    16:00 +13°C° 0.1 mm 0 mps 718 mmHg 80%
    17:00 +13°C° 0.1 mm 1 mps 718 mmHg 82%
    18:00 +13°C° 0.1 mm 1 mps 718 mmHg 83%
    19:00 +13°C° 0.1 mm 1 mps 718 mmHg 85%
    20:00 +12°C° 0 mm 1 mps 719 mmHg 87%
    21:00 +12°C° 0 mm 1 mps 719 mmHg 89%
    22:00 +11°C° 0 mm 1 mps 719 mmHg 91%
    23:00 +10°C° 0 mm 1 mps 719 mmHg 92%

    8 June, Monday

    Time Temperature Precipitation Wind Pressure Humidity
    00:00 +9°C° 0 mm 0 mps 719 mmHg 92%
    01:00 +8°C° 0 mm 0 mps 719 mmHg 93%
    02:00 +8°C° 0 mm 0 mps 719 mmHg 93%
    03:00 +8°C° 0 mm 0 mps 719 mmHg 93%
    04:00 +8°C° 0 mm 0 mps 718 mmHg 93%
    05:00 +9°C° 0 mm 0 mps 719 mmHg 90%
    06:00 +10°C° 0 mm 0 mps 719 mmHg 87%
    07:00 +11°C° 0 mm 0 mps 719 mmHg 84%
    08:00 +13°C° 0 mm 0 mps 719 mmHg 77%
    09:00 +15°C° 0 mm 1 mps 719 mmHg 71%
    10:00 +18°C° 0 mm 1 mps 719 mmHg 64%
    11:00 +18°C° 0.2 mm 1 mps 719 mmHg 64%
    12:00 +18°C° 0.2 mm 1 mps 719 mmHg 64%
    13:00 +18°C° 0.2 mm 1 mps 719 mmHg 64%
    14:00 +16°C° 0.5 mm 1 mps 719 mmHg 70%
    15:00 +16°C° 0.5 mm 1 mps 719 mmHg 76%
    16:00 +15°C° 0.5 mm 2 mps 719 mmHg 82%
    17:00 +14°C° 0.4 mm 1 mps 719 mmHg 85%
    18:00 +13°C° 0.4 mm 1 mps 719 mmHg 88%
    19:00 +13°C° 0.4 mm 1 mps 720 mmHg 91%
    20:00 +12°C° 0.6 mm 1 mps 720 mmHg 92%
    21:00 +12°C° 0.6 mm 1 mps 720 mmHg 93%
    22:00 +11°C° 0.6 mm 1 mps 721 mmHg 94%
    23:00 +11°C° 0.3 mm 1 mps 721 mmHg 94%

    9 June, Tuesday

    Time Temperature Precipitation Wind Pressure Humidity
    00:00 +11°C° 0.3 mm 1 mps 721 mmHg 95%
    01:00 +11°C° 0.3 mm 1 mps 721 mmHg 95%
    02:00 +10°C° 0.5 mm 0 mps 721 mmHg 95%
    03:00 +10°C° 0.5 mm 0 mps 721 mmHg 96%
    04:00 +10°C° 0.5 mm 0 mps 721 mmHg 96%
    05:00 +11°C° 0.6 mm 0 mps 721 mmHg 97%
    06:00 +11°C° 0.6 mm 0 mps 721 mmHg 97%
    07:00 +11°C° 0.6 mm 0 mps 722 mmHg 97%
    08:00 +11°C° 0.3 mm 0 mps 722 mmHg 95%
    09:00 +12°C° 0.3 mm 0 mps 722 mmHg 93%
    10:00 +14°C° 0.3 mm 1 mps 722 mmHg 91%
    11:00 +14°C° 0.3 mm 1 mps 722 mmHg 90%
    12:00 +14°C° 0.3 mm 1 mps 722 mmHg 90%
    13:00 +15°C° 0.3 mm 1 mps 722 mmHg 89%
    14:00 +15°C° 0.3 mm 1 mps 722 mmHg 84%
    15:00 +16°C° 0.3 mm 1 mps 722 mmHg 79%
    16:00 +17°C° 0.3 mm 2 mps 721 mmHg 75%
    17:00 +16°C° 0.3 mm 1 mps 722 mmHg 79%
    18:00 +16°C° 0.3 mm 1 mps 722 mmHg 83%
    19:00 +15°C° 0.3 mm 1 mps 722 mmHg 88%
    20:00 +14°C° 0.1 mm 1 mps 722 mmHg 90%
    21:00 +12°C° 0.1 mm 0 mps 722 mmHg 92%
    22:00 +10°C° 0.1 mm 0 mps 723 mmHg 95%
    23:00 +10°C° 0 mm 0 mps 723 mmHg 95%
    Show more